Flag for Albania Weather past 2 weeks in Tirana, Albania

Now
68 °F

Clear.


Feels Like: 68 °F
Forecast: 69 / 89 °F
Wind: 2 mph from North

Location: Tirana Airport

Current Time: Jul 25, 2014 at 2:04:19 AM

Latest Report: Jul 25, 2014 at 1:20 AM


Visibility: 10 mi

Pressure: 29.89 "Hg

Humidity: 94%

Dew point: 66 °F

Location of TiranaLocation

Historic Weather in Tirana — Graph

°F

Tirana temperature yesterday

Maximum temperature yesterday: 84 °F (at 2:20 PM)
Minimum temperature yesterday: 64 °F (at 12:50 AM)
Average temperature yesterday: 74 °F

Past Weeks' High & Low Weather Summary

 TemperatureHumidityPressure
High91 °F (Jul 19, 1:50 PM)94% (Jul 12, 3:20 AM)29.98 "Hg (Jul 12, 3:20 AM)
Low59 °F (Jul 16, 2:50 AM)34% (Jul 10, 5:20 PM)29.68 "Hg (Jul 11, 3:20 AM)
Average74 °F69%29.87 "Hg
* Reported Jul 10 12:20 AM — Jul 25 12:50 AM, Tirana, Weather by CustomWeather, © 2014

Note: Actual official high and low records may vary slightly from our data, if they occured in-between our weather recording intervals... More about our weather records

Advertising

Tirana weather history for previous 24 hours

 ConditionsComfort  
Time TempWeatherWind HumidityBarometerVisibility
12:50 AM
Jul 25
70 °FClear.2 mph88%29.89 "Hg10 mi
12:20 AM70 °FClear.2 mph88%29.89 "Hg10 mi
11:50 PM
Jul 24
68 °FClear.3 mph94%29.89 "Hg10 mi
11:20 PM70 °FClear.2 mph88%29.89 "Hg10 mi
10:50 PM70 °FClear.No wind88%29.89 "Hg10 mi
10:20 PM70 °FClear.No wind88%29.89 "Hg10 mi
9:50 PM72 °FClear.2 mph83%29.86 "Hg10 mi
9:20 PM73 °FClear.No wind78%29.86 "Hg10 mi
8:50 PM73 °FSunny.3 mph78%29.86 "Hg10 mi
8:20 PM73 °FSunny.3 mph78%29.86 "Hg10 mi
7:50 PM75 °FSunny.5 mph74%29.86 "Hg10 mi
7:20 PM77 °FPassing clouds.6 mph69%29.83 "HgN/A
6:50 PM79 °FPassing clouds.6 mph61%29.83 "HgN/A
6:20 PM79 °FPassing clouds.7 mph58%29.83 "HgN/A
5:50 PM79 °FPassing clouds.7 mph54%29.83 "HgN/A
5:20 PM81 °FScattered clouds.9 mph54%29.83 "HgN/A
4:50 PM81 °FScattered clouds.9 mph54%29.83 "HgN/A
4:20 PM81 °FScattered clouds.8 mph54%29.83 "HgN/A
3:50 PM81 °FScattered clouds.8 mph58%29.83 "HgN/A
3:20 PM82 °FScattered clouds.6 mph55%29.83 "HgN/A
2:50 PM82 °FScattered clouds.5 mph58%29.83 "HgN/A
2:20 PM84 °FScattered clouds.7 mph58%29.83 "HgN/A
1:50 PM82 °FScattered clouds.5 mph58%29.86 "HgN/A
1:20 PM81 °FScattered clouds.3 mph62%29.86 "HgN/A
12:50 PM81 °FMore clouds than sun.6 mph62%29.86 "HgN/A
12:20 PM82 °FBroken clouds.2 mph55%29.86 "HgN/A
11:50 AM81 °FBroken clouds.6 mph66%29.86 "HgN/A
11:20 AM79 °FScattered clouds.2 mph58%29.86 "HgN/A
10:50 AM77 °FScattered clouds.5 mph61%29.86 "HgN/A
10:20 AM77 °FScattered clouds.2 mph65%29.86 "HgN/A
9:50 AM77 °FScattered clouds.2 mph61%29.86 "HgN/A
9:20 AM75 °FScattered clouds.3 mph69%29.83 "HgN/A
8:50 AM73 °FScattered clouds.5 mph74%29.83 "HgN/A
8:20 AM73 °FScattered clouds.3 mph74%29.83 "HgN/A
7:50 AM72 °FScattered clouds.3 mph78%29.83 "HgN/A
7:20 AM70 °FScattered clouds.2 mph83%29.83 "HgN/A
6:50 AM66 °FScattered clouds.3 mph88%29.83 "HgN/A
6:20 AM66 °FPassing clouds.3 mph88%29.83 "HgN/A
5:50 AM64 °FPassing clouds.5 mph88%29.83 "HgN/A
5:20 AM64 °FPassing clouds.3 mph94%29.83 "Hg4 mi
4:50 AM66 °FPassing clouds.3 mph88%29.83 "HgN/A
4:20 AM66 °FPassing clouds.No wind88%29.83 "HgN/A
3:50 AM66 °FPassing clouds.3 mph88%29.80 "HgN/A
3:20 AM66 °FPassing clouds.5 mph88%29.80 "HgN/A
2:50 AM64 °FPassing clouds.3 mph94%29.83 "HgN/A
Weather by CustomWeather, © 2014

See weather overviewHow to use our weather pages